Liberia, Costa Rica

12:15 PM CST on October 21, 2017 (GMT -0600)
Daniel Oduber Quiros International

Weather History for MRLB - June, 2013

Change the Weather History Date:

Wednesday, June 19, 2013

  Actual Average Record
Temperature  
Mean Temperature 80 °F -  
Max Temperature 85 °F 87 °F 94 °F (2014)
Min Temperature 74 °F 75 °F 71 °F (2006)
Cooling Degree Days 14    
Growing Degree Days 30 (Base 50)    
Moisture  
Dew Point 73 °F    
Average Humidity 76    
Maximum Humidity 89    
Minimum Humidity 64    
Precipitation  
Precipitation 0.00 in - - ()
Sea Level Pressure  
Sea Level Pressure 29.78 in    
Wind  
Wind Speed 4 mph ()    
Max Wind Speed 14 mph    
Max Gust Speed -    
Visibility 7.7 miles    
Events      
Averages and records for this station are not official NWS values.
T = Trace of Precipitation, MM = Missing Value Source: Averaged Metar Reports

Daily Weather History Graph

Daily Weather History Graph

Search for Another Location

Airport or City:

Trip Planner

Search our weather history database for the weather conditions in past years. The results will help you decide how hot, cold, wet, or windy it might be!

Date:

Astronomy

Jun. 19, 2013 Rise Set
Actual Time 5:21 AM CST 6:06 PM CST
Civil Twilight 4:58 AM CST 6:29 PM CST
Nautical Twilight 4:30 AM CST 6:56 PM CST
Astronomical Twilight 4:03 AM CST 7:23 PM CST
Moon 2:23 PM CST (6/19) 1:33 AM CST (6/19)
Length of Visible Light 13h 31m
Length of Day
12h 44m
Waxing Gibbous, 81% of the Moon is Illuminated
Jun 19
Waxing Gibbous
Jun 23
Full
Jun 29
Last Quarter
Jul 8
New
Jul 15
First Quarter

Hourly Weather History & Observations

Time (CST) Temp. Heat Index Dew Point Humidity Pressure Visibility Wind Dir Wind Speed Gust Speed Precip Events Conditions
6:00 AM 76 °F - 72 °F 84% 29.80 in 12 mi ESE 4.6 mph - -   Overcast
6:00 AM 75.2 °F - 71.6 °F 89% 29.79 in 6.2 mi ESE 4.6 mph - N/A   Mostly Cloudy
7:00 AM 78.8 °F - 73.4 °F 83% 29.79 in 6.2 mi ENE 4.6 mph - N/A   Mostly Cloudy
8:00 AM 82.4 °F 88.2 °F 73.4 °F 74% 29.79 in 6.2 mi NE 3.5 mph - N/A   Mostly Cloudy
9:00 AM 85 °F - 74 °F 64% 29.82 in 12 mi NE 3.5 mph - -   Scattered Clouds
9:00 AM 86.0 °F 95.1 °F 75.2 °F 70% 29.81 in 6.2 mi NE 3.5 mph - N/A   Mostly Cloudy
10:00 AM 82.4 °F 87.2 °F 71.6 °F 70% 29.82 in 6.2 mi NE 13.8 mph - N/A   Mostly Cloudy
11:00 AM 78.8 °F - 71.6 °F 78% 29.81 in 6.2 mi NE 9.2 mph - N/A   Mostly Cloudy
12:00 PM 78 °F - 73 °F 82% 29.82 in 12 mi NNE 5.8 mph - -   Overcast
12:00 PM 78.8 °F - 73.4 °F 83% 29.81 in 6.2 mi NNE 5.8 mph - N/A   Mostly Cloudy
1:00 PM 80.6 °F 85.4 °F 73.4 °F 79% 29.78 in 6.2 mi NE 3.5 mph - N/A   Mostly Cloudy
2:00 PM 82.4 °F 88.2 °F 73.4 °F 74% 29.76 in 6.2 mi ESE 5.8 mph - N/A   Overcast
3:00 PM 82 °F - 72 °F 66% 29.74 in 12 mi ESE 6.9 mph - -   Overcast
3:00 PM 82.4 °F 87.2 °F 71.6 °F 70% 29.74 in 6.2 mi ESE 3.5 mph - N/A   Mostly Cloudy
4:00 PM 82.4 °F 88.2 °F 73.4 °F 74% 29.73 in 6.2 mi SSE 4.6 mph - N/A   Overcast
5:00 PM 82.4 °F 88.2 °F 73.4 °F 74% 29.73 in 6.2 mi SSE 4.6 mph - N/A   Mostly Cloudy
6:00 PM 83 °F - 73 °F 65% 29.75 in 12 mi SSE 4.6 mph - -   Overcast
6:00 PM 82.4 °F 88.2 °F 73.4 °F 74% 29.73 in 6.2 mi SSE 4.6 mph - N/A   Overcast
7:00 PM 78.8 °F - 73.4 °F 83% 29.78 in 6.2 mi ENE 5.8 mph - N/A   Overcast
8:00 PM 78.8 °F - 73.4 °F 83% 29.81 in 6.2 mi Calm Calm - N/A   Overcast